Temperature
17 17 17 16 16 16 16 16 16 16 15 15 15 15 15 15 15 15 15 15 15 14 14 14 14 14 14 14 14 14 14 14 14 14 13 13 13 13 13 13 13 13 13
16 17 17 16 16 16 16 16 15 15 15 15 15 15 15 15 15 15 14 14 14 14 14 14 14 14 14 14 14 14 14 13 13 13 13 13 13 13 12 13 13 13 13
16 16 16 16 16 16 16 16 15 15 15 15 15 15 15 15 15 14 14 14 14 14 14 14 14 14 14 13 13 13 13 13 13 13 13 13 12 12 12 12 12 12 12
16 16 16 16 16 16 16 15 15 15 15 15 15 15 15 15 15 14 14 14 14 14 14 14 14 14 13 13 13 13 13 13 13 13 13 13 13 12 12 12 12 12 12
16 16 16 16 16 16 15 15 15 15 15 15 15 15 15 15 14 14 14 14 14 14 14 14 14 13 13 13 13 13 13 13 13 13 13 13 13 12 12 11 11 12 12
16 16 16 16 16 16 15 15 15 15 15 15 15 15 15 14 14 14 14 14 14 14 14 14 13 13 13 13 13 13 13 13 13 13 13 13 12 12 12 12 11 11 11
16 16 16 16 16 15 15 15 15 15 15 15 15 15 14 14 14 14 14 14 14 14 14 13 13 13 13 13 13 13 13 13 13 12 12 12 12 12 12 12 11 11 11
16 16 16 16 16 15 15 15 15 15 15 15 15 15 14 14 14 14 14 14 14 14 13 13 13 13 13 13 13 13 13 13 13 12 12 12 12 12 12 12 12 11 11
16 16 16 16 16 15 15 15 15 15 15 15 15 14 14 14 14 14 14 14 14 14 13 13 13 13 13 13 13 13 13 12 12 12 12 12 12 12 12 12 12 11 11
15 15 16 16 16 16 15 15 15 15 15 14 14 14 14 14 14 14 14 14 14 13 13 13 13 13 13 13 12 12 12 12 12 12 12 12 12 12 12 12 12 11 11
15 15 15 15 16 15 15 15 15 15 14 14 14 14 14 14 14 14 14 14 14 13 13 13 13 13 13 13 12 12 12 12 12 12 12 12 12 12 12 12 11 11 11
15 15 15 15 15 15 15 15 15 14 14 14 14 14 14 14 14 14 14 13 13 13 13 13 13 13 12 12 12 12 12 12 12 12 12 12 12 11 11 11 11 11 11
15 15 15 14 15 15 15 15 15 14 14 14 14 14 14 14 13 13 13 13 13 13 13 13 13 12 12 12 12 12 12 12 12 11 11 11 11 11 11 11 11 11 11
14 14 14 14 14 14 14 14 14 14 14 14 14 14 14 13 13 13 13 13 13 13 13 12 12 12 12 12 12 12 12 11 11 11 11 11 11 11 11 11 11 11 11
14 14 14 14 14 14 14 14 14 14 14 14 13 13 13 13 13 13 13 13 13 12 12 12 12 12 12 12 12 11 11 11 11 11 11 11 11 11 10 10 10 10 10
13 14 14 14 14 14 14 14 13 14 13 13 13 13 13 13 13 13 13 13 12 12 12 12 12 12 12 11 11 11 11 11 11 11 11 10 10 10 10 10 10 10 10
13 13 14 13 13 13 13 13 13 13 13 13 13 13 13 13 13 12 12 12 12 12 12 12 12 11 11 11 11 11 11 11 11 10 10 10 10 10 10 10 10 10 10
13 13 13 13 13 13 13 13 13 13 13 13 13 12 12 12 12 12 12 12 12 12 11 11 11 11 11 11 11 11 10 10 10 10 10 10 10 10 10 10 10 10 10
13 13 13 13 13 13 13 13 13 13 12 12 12 12 12 12 12 12 12 12 11 11 11 11 11 11 11 10 10 10 10 10 10 10 10 9 9 9 9 9 9 9 9
13 13 13 13 13 12 12 12 12 12 12 12 12 12 12 12 12 11 11 11 11 11 11 10 10 10 10 10 10 10 10 10 9 9 9 9 9 9 9 9 9 9 9
12 12 12 12 12 12 12 12 12 12 12 12 11 11 11 11 11 11 11 11 10 10 10 10 10 10 10 10 9 9 9 9 9 9 9 9 9 9 8 8 8 8 8
12 12 12 12 11 11 11 11 11 11 11 11 11 11 11 11 11 10 10 10 10 10 10 9 9 9 9 9 9 9 9 9 9 9 9 9 8 8 8 8 8 8 8
11 11 11 11 11 11 11 11 11 11 10 10 10 10 10 10 10 10 10 10 10 9 9 9 9 9 9 9 9 8 8 8 8 8 8 8 8 8 8 8 8 8 8
11 10 10 10 10 10 10 10 10 10 10 10 10 10 10 10 10 9 9 9 9 9 9 9 9 8 8 8 8 8 8 8 8 8 8 8 8 7 7 7 7 7 7
10 10 10 10 10 10 10 10 9 9 9 9 9 9 9 9 9 9 9 9 9 9 8 8 8 8 8 8 8 8 8 8 8 7 7 7 7 7 7 7 7 7 7
9 9 9 9 9 9 9 9 9 9 9 9 9 9 9 9 9 9 8 8 8 8 8 8 8 7 7 7 7 7 7 7 7 7 7 7 7 7 7 7 7 6 6
Wind_Speed
4 2 2 3 3 3 3 3 3 4 4 3 2 2 1 1 2 2 3 3 4 5 5 4 4 4 4 3 4 3 5 4 3 3 4 5 5 6 6 6 6 8 9
2 2 2 3 4 4 4 3 3 4 4 3 3 2 2 1 1 2 3 3 4 4 4 4 3 3 3 4 4 3 2 2 3 2 3 3 4 5 6 5 5 6 7
5 4 3 4 4 5 5 5 4 4 4 4 4 4 4 3 2 2 2 2 3 3 4 3 3 3 3 3 2 3 3 2 2 2 3 2 0 2 4 5 5 6 5
4 4 3 3 5 5 5 4 4 4 4 5 5 5 4 2 2 1 0 1 2 2 3 3 3 3 2 2 2 2 2 3 1 2 2 2 2 2 1 3 4 4 4
5 5 5 5 4 4 4 5 4 4 4 5 6 5 3 2 1 1 2 1 1 2 2 3 3 2 2 2 2 2 2 2 2 1 1 2 2 2 2 1 3 3 3
5 5 4 2 2 2 3 4 5 3 4 5 5 5 5 4 3 2 2 1 1 1 2 2 2 2 1 2 2 2 2 2 2 2 2 2 2 2 2 1 1 2 2
5 4 4 4 3 4 4 4 5 4 4 5 5 5 5 6 5 4 3 2 1 0 0 1 1 1 1 2 2 2 1 2 2 2 1 2 2 2 3 3 1 0 2
5 5 5 5 5 5 5 5 6 5 5 5 5 4 4 4 3 4 4 4 3 2 2 2 2 2 2 2 2 2 1 1 1 1 1 1 1 2 3 3 3 1 1
5 5 5 4 4 5 5 6 7 6 5 6 5 4 4 4 4 3 3 3 2 2 2 2 2 2 2 3 3 2 1 2 1 1 1 1 0 1 1 2 3 3 1
3 3 3 4 4 5 4 4 5 6 6 5 5 5 4 4 4 3 3 3 3 2 3 2 2 2 2 2 3 2 1 2 1 1 1 0 0 1 1 2 2 2 3
3 3 3 3 3 3 3 3 4 4 5 5 5 4 4 4 4 4 4 4 3 3 3 3 3 3 2 2 3 2 2 2 1 0 1 1 1 1 1 1 2 2 2
3 3 2 2 2 2 3 4 4 5 5 5 5 4 4 4 4 4 4 3 4 3 4 3 3 3 3 3 3 3 2 2 2 1 1 1 0 1 1 2 2 2 2
1 1 1 2 2 3 3 3 4 4 4 4 4 4 4 4 4 4 4 3 3 3 3 3 3 3 3 3 3 3 3 2 2 2 2 1 1 1 1 2 2 2 2
1 1 1 2 2 3 3 3 3 3 4 5 5 5 5 4 4 4 3 3 3 4 4 4 4 4 3 3 3 3 3 2 2 2 2 2 2 3 2 2 2 2 2
1 2 2 2 2 2 2 2 3 3 3 5 5 5 4 4 3 3 3 3 3 4 3 3 3 3 3 3 4 3 3 3 2 2 2 2 3 3 3 2 3 3 3
3 3 2 2 3 3 3 2 2 3 4 4 4 4 4 4 4 4 3 3 3 3 3 3 3 3 3 4 5 4 4 3 3 3 2 2 3 3 3 3 4 5 4
4 4 3 3 4 4 4 4 4 3 4 4 4 4 4 4 4 3 3 4 4 3 3 3 3 3 4 5 5 6 4 4 3 3 3 2 2 2 2 2 3 4 6
3 3 3 3 3 2 2 2 3 3 3 3 3 4 4 4 3 3 3 3 3 3 3 3 3 3 3 4 4 5 3 2 3 3 4 3 3 2 2 1 1 2 3
2 2 2 2 2 1 1 2 2 3 3 3 4 4 4 4 4 4 3 3 3 3 3 3 3 3 3 3 3 4 2 2 3 3 3 4 4 4 3 2 2 2 2
2 0 0 0 0 1 1 2 2 3 3 3 4 3 4 4 5 5 4 2 3 3 3 3 3 3 3 3 3 4 3 3 2 2 3 5 4 5 4 3 3 3 3
2 1 1 1 1 1 2 2 2 3 3 2 2 2 3 4 4 3 3 3 3 2 2 2 2 3 3 4 4 4 3 4 3 3 3 4 6 6 6 4 4 5 3
3 2 1 1 1 1 2 1 2 3 1 1 1 2 2 3 3 3 3 3 3 3 2 2 2 2 3 4 5 5 5 4 4 4 4 4 6 6 6 4 5 5 2
3 2 1 2 2 1 2 2 2 1 1 1 1 2 2 2 2 3 3 3 3 3 3 3 3 3 3 3 5 6 6 5 4 4 5 5 5 4 4 5 5 3 2
3 2 2 2 2 1 0 1 1 1 2 1 1 2 2 2 2 2 3 3 4 4 4 4 4 4 3 3 3 3 4 5 4 3 3 4 3 2 2 2 2 2 3
2 2 2 2 2 2 2 1 1 1 1 2 2 2 2 2 3 3 4 5 5 6 6 6 6 5 5 6 6 4 4 4 4 2 1 1 1 1 1 1 1 1 2
2 2 3 3 3 3 3 3 2 1 2 2 2 2 2 2 2 2 2 4 5 6 7 7 6 6 8 7 7 6 6 5 5 3 3 3 3 4 4 3 3 3 3
Wind_Direction
244 232 201 180 158 142 137 144 149 148 136 117 113 95 74 49 46 53 67 86 96 96 94 87 79 80 79 80 81 82 71 52 40 60 45 33 37 39 34 31 36 36 35
251 233 205 183 177 172 164 155 157 156 158 154 139 122 111 83 63 48 53 67 86 94 104 102 98 90 88 78 78 85 80 49 42 74 72 28 15 19 26 28 36 31 33
214 215 204 199 187 185 185 178 174 161 159 142 114 89 70 53 43 36 36 36 78 93 97 106 105 103 105 110 103 105 106 92 35 59 108 112 167 351 5 23 31 29 30
214 207 199 199 201 201 187 173 168 162 159 147 141 137 138 143 187 174 114 45 74 91 98 107 108 109 108 119 126 113 121 126 93 43 55 105 144 132 11 356 7 20 28
213 206 200 202 203 191 173 167 158 162 160 152 153 146 138 145 129 108 97 72 54 71 91 108 109 116 120 128 119 105 112 120 129 125 108 82 71 88 127 352 342 358 3
215 210 198 173 175 166 164 160 155 165 163 161 159 158 155 151 136 129 130 112 58 42 65 102 107 120 134 150 153 141 138 132 122 128 137 147 143 154 142 169 292 336 335
203 199 183 180 179 179 177 170 165 171 171 169 173 175 172 167 168 170 167 161 153 163 202 132 135 134 151 157 144 134 145 147 148 164 171 173 182 163 151 145 166 355 329
207 203 197 193 193 193 188 179 178 185 182 180 184 180 177 173 177 182 177 182 193 197 191 168 160 155 141 134 125 117 146 132 145 160 168 156 180 167 163 160 150 105 356
210 208 201 195 195 194 196 192 185 186 188 187 181 179 179 176 183 190 187 187 192 187 169 160 152 145 134 134 130 125 145 122 128 153 148 139 191 167 169 157 156 152 167
217 213 207 203 199 197 196 176 181 189 190 186 185 186 185 183 182 178 190 189 189 180 161 160 157 145 139 137 130 130 134 122 123 138 126 136 236 170 162 163 156 156 162
214 216 220 215 198 184 179 181 192 193 191 189 185 178 182 177 173 184 195 192 189 181 171 172 162 157 150 145 136 144 134 132 133 139 162 230 200 170 158 148 141 150 152
217 212 204 186 171 184 194 193 197 200 201 193 178 179 177 169 177 193 201 190 191 189 179 168 164 168 164 155 157 168 161 164 180 209 193 242 188 178 181 164 177 184 181
198 159 151 179 197 203 210 208 203 208 198 182 174 175 179 180 195 202 197 190 187 180 172 165 172 177 176 175 176 175 178 185 195 213 207 224 186 228 219 185 194 196 179
174 176 191 206 208 212 214 215 216 209 189 177 179 184 196 197 202 198 189 188 186 180 181 180 183 183 180 183 182 178 186 193 207 218 215 214 212 213 208 203 201 182 160
204 199 210 223 226 222 229 222 215 201 188 180 187 198 198 193 189 186 189 186 184 187 183 178 180 182 186 193 184 187 193 194 204 219 232 235 237 225 208 206 193 175 171
240 234 229 229 230 226 228 221 208 194 172 180 193 193 185 184 187 188 183 176 181 181 170 177 182 192 212 211 198 190 189 192 198 218 238 246 251 251 244 231 203 189 185
243 232 232 231 231 229 222 212 204 182 168 179 187 184 179 184 187 181 168 177 183 173 176 188 187 206 233 227 212 201 185 190 202 214 219 231 243 248 241 252 238 224 216
255 245 240 243 251 240 231 210 178 168 171 181 185 187 182 183 173 165 178 188 178 176 191 199 199 206 232 227 218 203 186 192 212 220 214 215 229 227 210 213 237 237 238
258 249 234 232 236 240 213 154 160 164 167 185 193 196 186 178 171 179 196 195 181 189 197 199 198 204 235 232 207 177 176 199 233 241 230 216 219 231 214 187 213 257 277
353 323 191 112 149 262 158 142 163 164 192 209 210 201 186 181 185 195 200 193 185 194 192 198 203 208 225 227 204 176 179 207 236 251 251 239 231 227 216 205 197 228 257
0 23 72 104 222 191 136 141 170 211 228 221 208 199 193 193 191 191 188 172 171 167 178 207 226 222 231 238 228 202 196 209 219 228 242 247 243 239 226 218 213 226 225
13 26 59 27 11 107 133 153 225 241 216 176 203 216 209 201 186 175 181 177 172 175 197 212 253 257 247 240 239 228 228 223 210 225 234 241 241 240 232 225 227 223 198
5 8 40 25 15 48 141 181 257 244 155 160 227 230 215 199 182 183 186 186 186 194 212 217 235 254 258 251 248 241 235 230 223 231 235 239 235 231 233 229 221 204 176
357 3 29 23 343 324 261 221 254 204 154 180 230 230 213 213 202 197 195 195 200 209 217 222 233 243 248 248 241 235 234 231 232 236 236 238 233 215 223 234 233 204 196
349 6 3 324 308 309 303 281 268 179 175 196 215 222 220 215 218 222 221 215 218 214 216 218 217 219 236 242 233 218 218 218 220 205 191 190 198 214 227 227 231 212 200
350 352 337 319 310 309 297 292 270 209 195 205 213 214 224 228 219 230 271 257 243 246 241 231 224 230 236 243 241 238 235 233 214 193 205 217 217 218 222 225 226 222 220
Height
1516 1517 1518 1518 1519 1520 1521 1522 1523 1524 1525 1526 1527 1528 1528 1529 1530 1530 1531 1531 1531 1531 1531 1531 1531 1531 1531 1531 1531 1531 1531 1531 1531 1531 1531 1531 1531 1531 1530 1530 1530 1529 1529
1514 1515 1516 1517 1518 1519 1520 1521 1522 1524 1525 1526 1527 1528 1529 1530 1530 1531 1531 1532 1532 1532 1532 1532 1532 1532 1532 1532 1532 1532 1532 1532 1532 1532 1531 1532 1534 1532 1532 1532 1531 1531 1530
1512 1513 1514 1515 1516 1517 1518 1520 1521 1523 1524 1526 1527 1528 1529 1530 1530 1531 1531 1532 1532 1532 1532 1533 1533 1533 1533 1533 1533 1533 1533 1533 1533 1533 1533 1533 1533 1533 1534 1533 1532 1532 1532
1511 1512 1513 1513 1514 1516 1517 1519 1521 1522 1524 1525 1526 1527 1527 1528 1529 1530 1531 1532 1532 1532 1532 1533 1533 1533 1533 1533 1533 1533 1533 1534 1533 1533 1534 1534 1534 1534 1534 1534 1533 1533 1532
1509 1510 1511 1512 1513 1514 1516 1518 1520 1521 1523 1524 1525 1526 1527 1528 1529 1530 1531 1531 1532 1532 1532 1532 1533 1533 1533 1533 1533 1534 1534 1534 1534 1534 1534 1534 1534 1534 1534 1534 1534 1533 1533
1507 1508 1509 1510 1512 1513 1515 1517 1518 1520 1521 1523 1524 1525 1526 1527 1528 1529 1530 1530 1531 1531 1532 1532 1532 1532 1533 1533 1533 1534 1534 1534 1534 1534 1534 1534 1534 1534 1534 1534 1533 1533 1533
1504 1506 1507 1508 1510 1511 1513 1515 1517 1518 1520 1522 1523 1524 1525 1526 1527 1528 1529 1529 1530 1530 1531 1531 1531 1532 1532 1532 1533 1533 1533 1533 1533 1534 1534 1534 1534 1534 1534 1534 1533 1533 1533
1502 1503 1505 1506 1508 1510 1512 1513 1515 1517 1519 1520 1522 1523 1524 1525 1526 1527 1528 1528 1529 1529 1530 1530 1530 1531 1531 1532 1532 1532 1532 1533 1533 1533 1533 1533 1533 1533 1533 1533 1533 1532 1533
1499 1501 1502 1504 1506 1508 1510 1511 1513 1515 1517 1518 1520 1521 1523 1524 1525 1526 1527 1527 1528 1528 1529 1529 1529 1530 1530 1531 1531 1531 1531 1532 1532 1532 1532 1532 1532 1532 1532 1533 1533 1533 1532
1498 1499 1500 1502 1504 1506 1508 1509 1511 1513 1515 1516 1518 1519 1521 1522 1523 1524 1525 1526 1526 1527 1527 1528 1528 1528 1529 1529 1530 1530 1530 1530 1530 1531 1531 1531 1531 1531 1531 1531 1531 1532 1532
1496 1497 1499 1500 1501 1503 1505 1507 1509 1511 1513 1514 1516 1517 1518 1520 1521 1522 1523 1523 1524 1525 1526 1526 1526 1527 1527 1527 1528 1528 1528 1528 1528 1529 1529 1529 1529 1529 1529 1529 1529 1530 1530
1495 1496 1497 1498 1499 1501 1503 1505 1507 1509 1510 1512 1513 1515 1516 1517 1518 1519 1520 1521 1522 1523 1523 1524 1524 1525 1525 1525 1526 1526 1526 1526 1526 1527 1527 1527 1527 1527 1527 1527 1527 1528 1528
1493 1494 1495 1496 1497 1499 1500 1502 1504 1506 1507 1509 1511 1512 1514 1515 1516 1517 1518 1519 1520 1520 1521 1521 1522 1522 1523 1523 1524 1524 1524 1524 1524 1524 1524 1524 1525 1525 1525 1525 1525 1525 1526
1492 1492 1493 1494 1495 1496 1498 1499 1501 1503 1504 1506 1507 1509 1510 1511 1513 1514 1515 1516 1517 1517 1518 1519 1519 1520 1520 1521 1521 1522 1522 1522 1522 1522 1522 1522 1522 1522 1522 1522 1522 1522 1523
1490 1491 1491 1492 1493 1494 1495 1496 1498 1500 1501 1503 1504 1505 1507 1508 1509 1511 1512 1512 1513 1514 1515 1516 1516 1517 1517 1518 1519 1519 1519 1519 1519 1520 1520 1520 1520 1520 1520 1519 1519 1519 1519
1488 1489 1489 1490 1491 1491 1492 1493 1494 1496 1498 1499 1500 1502 1503 1505 1506 1507 1508 1509 1510 1511 1512 1512 1513 1514 1514 1515 1516 1516 1516 1516 1516 1516 1517 1517 1517 1517 1517 1516 1516 1517 1517
1487 1487 1487 1488 1488 1489 1489 1490 1491 1493 1494 1495 1497 1498 1500 1501 1502 1503 1504 1505 1506 1507 1508 1509 1509 1510 1511 1512 1512 1513 1513 1513 1513 1513 1513 1513 1514 1514 1513 1513 1513 1513 1514
1485 1485 1485 1485 1486 1486 1487 1488 1489 1490 1491 1492 1493 1495 1496 1497 1498 1499 1500 1502 1502 1503 1504 1505 1505 1506 1507 1508 1508 1509 1509 1510 1510 1510 1510 1510 1510 1510 1510 1510 1509 1510 1510
1483 1483 1483 1483 1483 1484 1484 1485 1486 1487 1488 1489 1490 1491 1492 1493 1495 1496 1497 1498 1499 1499 1500 1501 1502 1502 1503 1504 1505 1505 1505 1506 1506 1506 1506 1506 1506 1506 1507 1506 1506 1506 1506
1481 1481 1481 1481 1482 1482 1482 1483 1483 1484 1485 1486 1487 1488 1489 1490 1491 1492 1493 1494 1495 1496 1496 1497 1498 1499 1499 1500 1501 1501 1501 1501 1502 1502 1502 1503 1503 1503 1503 1503 1502 1502 1502
1480 1479 1479 1479 1479 1480 1480 1481 1481 1482 1483 1484 1485 1486 1487 1487 1488 1489 1490 1491 1491 1492 1493 1493 1494 1495 1495 1496 1497 1497 1497 1497 1497 1497 1498 1498 1498 1499 1499 1499 1499 1498 1499
1479 1478 1477 1477 1478 1478 1478 1479 1479 1480 1481 1482 1483 1484 1484 1485 1485 1486 1487 1487 1488 1488 1489 1489 1490 1491 1491 1492 1492 1492 1493 1493 1493 1493 1493 1494 1494 1495 1495 1495 1495 1495 1495
1478 1477 1476 1476 1476 1476 1477 1477 1478 1478 1479 1480 1480 1481 1481 1482 1482 1483 1483 1484 1484 1485 1485 1485 1485 1486 1487 1487 1488 1488 1488 1489 1489 1489 1490 1490 1490 1490 1490 1491 1491 1491 1491
1477 1477 1476 1475 1475 1475 1475 1475 1476 1476 1476 1477 1477 1478 1478 1478 1479 1479 1480 1480 1480 1481 1481 1481 1481 1482 1483 1483 1483 1483 1484 1484 1484 1485 1485 1486 1486 1486 1486 1486 1486 1486 1486
1477 1476 1475 1474 1473 1473 1473 1473 1473 1473 1473 1473 1474 1474 1475 1475 1475 1476 1476 1476 1476 1477 1477 1477 1478 1478 1478 1479 1479 1479 1479 1479 1480 1480 1480 1480 1480 1480 1481 1481 1482 1482 1482
1476 1475 1474 1473 1472 1471 1471 1471 1471 1471 1470 1470 1471 1471 1471 1472 1472 1472 1472 1472 1473 1473 1473 1473 1473 1474 1474 1475 1475 1475 1475 1475 1476 1476 1475 1475 1475 1475 1476 1476 1476 1477 1477